Find Starlink 31931

NORAD ID: 59864 Int'l Des: 2024-098 Owner: SPXS Country: US Constellation: starlink operational
LEOCIRCULAR

Current View

Loading 3D Globe...

About Starlink 31931

Starlink 31931 (NORAD 59864) is a starlink constellation satellite (v2 mini) launched May 24, 2024 by SPXS of US. It operates in LEO, CIRCULAR orbit with a mass of 730.00 kg.

About Starlink 31931

Description loading...

Upcoming Passes

Passes for default location (London). Set your location on the main map for personalized predictions.

Altitude History

Loading altitude history...

Two-Line Element Set

1 59864U 24098G 26171.02786353 .00000787 00000-0 38132-4 0 9999
2 59864 43.0043 60.3717 0001318 272.1788 87.8913 15.27573221117493
Epoch: Jun 20, 2026 • Age: 12 hours

Current Status

Altitude 482.4 km
Velocity 7.63 km/s
Sub-Earth Point 8.51°N, 133.95°E
Launch Date May 24, 2024
Age 2 years
Type internet

Technical Details

Classification Payload
Mass 730.00 kg
Dry Mass 700.00 kg
Total Mass 730.00 kg
Length 0.30 m
Diameter 4.10 m
Span 29.00 m
Shape Box + pan
Manufacturer SPXS
Bus Type Starlink V2M
Phase Status In Orbit
Owner/State SPXS/US

Most Searched